When you browse on this site, cookies collect data to enhance your experience and personalize the content and advertising you see.
Visit our Privacy Policy to learn more. By continuing to use the site, you agree to this use of cookies and data.
  • In Lithuania
  • List of Countries
  • For 7 days
  • Water Temperature
  • Satellite Maps
  • Weather Map
  • Weather Widgets
  • user-avatar
    Login

    Hourly Weather Da Nang

    Today, 20 November, Tuesday

    Time Temperature Precipitation Wind Pressure Humidity
    00:00 +26°C° 0.1 mm 2 mps 760 mmHg 96%
    01:00 +26°C° 0 mm 2 mps 760 mmHg 96%
    02:00 +26°C° 0.1 mm 2 mps 760 mmHg 96%
    03:00 +26°C° 0.1 mm 2 mps 760 mmHg 97%
    04:00 +26°C° 0.1 mm 2 mps 759 mmHg 97%
    05:00 +26°C° 0 mm 2 mps 759 mmHg 96%
    06:00 +26°C° 0 mm 2 mps 760 mmHg 95%
    07:00 +26°C° 0 mm 1 mps 760 mmHg 94%
    08:00 +28°C° 0 mm 2 mps 760 mmHg 85%
    09:00 +30°C° 0 mm 2 mps 760 mmHg 77%
    10:00 +31°C° 0 mm 2 mps 760 mmHg 69%
    11:00 +32°C° 0 mm 2 mps 759 mmHg 66%
    12:00 +32°C° 0 mm 2 mps 759 mmHg 62%
    13:00 +34°C° 0 mm 2 mps 758 mmHg 59%
    14:00 +32°C° 0 mm 2 mps 758 mmHg 62%
    15:00 +32°C° 0 mm 2 mps 758 mmHg 66%
    16:00 +31°C° 0 mm 3 mps 757 mmHg 70%
    17:00 +29°C° 0 mm 2 mps 758 mmHg 78%
    18:00 +27°C° 0 mm 2 mps 758 mmHg 86%
    19:00 +25°C° 0 mm 1 mps 759 mmHg 95%
    20:00 +25°C° 0 mm 2 mps 759 mmHg 95%
    21:00 +25°C° 0 mm 2 mps 759 mmHg 96%
    22:00 +24°C° 0 mm 2 mps 760 mmHg 96%
    23:00 +24°C° 0 mm 2 mps 759 mmHg 97%

    Tomorrow, 21 November, Wednesday

    Time Temperature Precipitation Wind Pressure Humidity
    00:00 +24°C° 0 mm 2 mps 759 mmHg 97%
    01:00 +24°C° 0 mm 2 mps 759 mmHg 98%
    02:00 +23°C° 0 mm 2 mps 759 mmHg 98%
    03:00 +23°C° 0 mm 2 mps 759 mmHg 98%
    04:00 +23°C° 0 mm 2 mps 758 mmHg 98%
    05:00 +24°C° 0 mm 2 mps 759 mmHg 95%
    06:00 +24°C° 0 mm 2 mps 759 mmHg 92%
    07:00 +24°C° 0 mm 1 mps 759 mmHg 89%
    08:00 +27°C° 0 mm 1 mps 759 mmHg 78%
    09:00 +30°C° 0 mm 1 mps 760 mmHg 67%
    10:00 +32°C° 0 mm 1 mps 760 mmHg 57%
    11:00 +33°C° 0 mm 1 mps 759 mmHg 56%
    12:00 +33°C° 0 mm 1 mps 758 mmHg 55%
    13:00 +33°C° 0 mm 1 mps 758 mmHg 54%
    14:00 +33°C° 0 mm 1 mps 758 mmHg 59%
    15:00 +32°C° 0 mm 1 mps 757 mmHg 63%
    16:00 +31°C° 0 mm 2 mps 757 mmHg 68%
    17:00 +29°C° 0 mm 1 mps 758 mmHg 77%
    18:00 +27°C° 0 mm 1 mps 758 mmHg 85%
    19:00 +25°C° 0 mm 1 mps 759 mmHg 93%
    20:00 +25°C° 0 mm 1 mps 759 mmHg 94%
    21:00 +25°C° 0 mm 1 mps 760 mmHg 94%
    22:00 +25°C° 0 mm 1 mps 760 mmHg 94%
    23:00 +25°C° 0.1 mm 1 mps 760 mmHg 93%

    Day after tomorrow, 22 November, Thursday

    Time Temperature Precipitation Wind Pressure Humidity
    00:00 +25°C° 0.1 mm 1 mps 760 mmHg 92%
    01:00 +25°C° 0.1 mm 2 mps 759 mmHg 91%
    02:00 +25°C° 0.3 mm 2 mps 759 mmHg 92%
    03:00 +25°C° 0.3 mm 2 mps 759 mmHg 93%
    04:00 +25°C° 0.3 mm 2 mps 759 mmHg 94%
    05:00 +25°C° 0.8 mm 2 mps 759 mmHg 94%
    06:00 +26°C° 0.8 mm 3 mps 760 mmHg 93%
    07:00 +26°C° 0.8 mm 3 mps 760 mmHg 92%
    08:00 +26°C° 1.8 mm 4 mps 760 mmHg 92%
    09:00 +26°C° 1.8 mm 4 mps 761 mmHg 92%
    10:00 +27°C° 1.8 mm 4 mps 761 mmHg 92%
    11:00 +27°C° 1.6 mm 4 mps 760 mmHg 93%
    12:00 +27°C° 1.6 mm 4 mps 760 mmHg 93%
    13:00 +27°C° 1.6 mm 4 mps 759 mmHg 93%
    14:00 +27°C° 2.2 mm 5 mps 759 mmHg 94%
    15:00 +26°C° 2.2 mm 5 mps 759 mmHg 95%
    16:00 +26°C° 2.2 mm 5 mps 758 mmHg 96%
    17:00 +26°C° 2.2 mm 5 mps 759 mmHg 96%
    18:00 +26°C° 2.2 mm 6 mps 760 mmHg 96%
    19:00 +26°C° 2.2 mm 6 mps 760 mmHg 96%
    20:00 +26°C° 1.5 mm 6 mps 761 mmHg 96%
    21:00 +26°C° 1.5 mm 5 mps 761 mmHg 96%
    22:00 +26°C° 1.5 mm 5 mps 761 mmHg 96%
    23:00 +25°C° 1 mm 5 mps 761 mmHg 96%

    23 November, Friday

    Time Temperature Precipitation Wind Pressure Humidity
    00:00 +25°C° 1 mm 5 mps 760 mmHg 96%
    01:00 +25°C° 1 mm 4 mps 760 mmHg 97%
    02:00 +25°C° 1.2 mm 5 mps 760 mmHg 97%
    03:00 +25°C° 1.2 mm 5 mps 760 mmHg 97%
    04:00 +25°C° 1.2 mm 5 mps 759 mmHg 97%
    05:00 +25°C° 1.6 mm 5 mps 760 mmHg 96%
    06:00 +25°C° 1.6 mm 5 mps 760 mmHg 96%
    07:00 +25°C° 1.6 mm 5 mps 761 mmHg 96%
    08:00 +26°C° 1.1 mm 5 mps 761 mmHg 95%
    09:00 +26°C° 1.1 mm 5 mps 761 mmHg 94%
    10:00 +26°C° 1.1 mm 5 mps 761 mmHg 94%
    11:00 +26°C° 1 mm 5 mps 760 mmHg 94%
    12:00 +26°C° 1 mm 5 mps 760 mmHg 94%
    13:00 +26°C° 1 mm 5 mps 759 mmHg 94%
    14:00 +26°C° 1.2 mm 5 mps 759 mmHg 94%
    15:00 +26°C° 1.2 mm 5 mps 759 mmHg 95%
    16:00 +26°C° 1.2 mm 5 mps 758 mmHg 95%
    17:00 +25°C° 0.8 mm 4 mps 759 mmHg 95%
    18:00 +25°C° 0.8 mm 4 mps 759 mmHg 96%
    19:00 +25°C° 0.8 mm 4 mps 760 mmHg 96%
    20:00 +25°C° 0.7 mm 4 mps 760 mmHg 96%
    21:00 +25°C° 0.7 mm 4 mps 760 mmHg 96%
    22:00 +25°C° 0.7 mm 4 mps 760 mmHg 96%
    23:00 +25°C° 0.5 mm 4 mps 760 mmHg 96%

    24 November, Saturday

    Time Temperature Precipitation Wind Pressure Humidity
    00:00 +25°C° 0.5 mm 4 mps 759 mmHg 97%
    01:00 +25°C° 0.5 mm 4 mps 759 mmHg 97%
    02:00 +25°C° 0.5 mm 4 mps 759 mmHg 97%
    03:00 +25°C° 0.5 mm 4 mps 758 mmHg 97%
    04:00 +25°C° 0.5 mm 5 mps 758 mmHg 97%
    05:00 +25°C° 0.6 mm 5 mps 758 mmHg 97%
    06:00 +25°C° 0.6 mm 5 mps 759 mmHg 96%
    07:00 +25°C° 0.6 mm 5 mps 759 mmHg 96%
    08:00 +26°C° 0.7 mm 5 mps 759 mmHg 96%
    09:00 +26°C° 0.7 mm 6 mps 759 mmHg 96%
    10:00 +26°C° 0.7 mm 6 mps 759 mmHg 95%
    11:00 +26°C° 1.9 mm 6 mps 759 mmHg 96%
    12:00 +26°C° 1.9 mm 6 mps 758 mmHg 96%
    13:00 +26°C° 1.9 mm 6 mps 757 mmHg 97%
    14:00 +26°C° 3.9 mm 6 mps 757 mmHg 97%
    15:00 +26°C° 3.9 mm 7 mps 757 mmHg 97%
    16:00 +24°C° 3.9 mm 7 mps 757 mmHg 97%
    17:00 +26°C° 5.3 mm 7 mps 757 mmHg 97%
    18:00 +26°C° 5.3 mm 7 mps 758 mmHg 97%
    19:00 +26°C° 5.3 mm 7 mps 759 mmHg 97%
    20:00 +26°C° 5.6 mm 6 mps 759 mmHg 97%
    21:00 +26°C° 5.6 mm 6 mps 759 mmHg 98%
    22:00 +26°C° 5.6 mm 6 mps 758 mmHg 98%
    23:00 +26°C° 7.8 mm 5 mps 758 mmHg 98%

    25 November, Sunday

    Time Temperature Precipitation Wind Pressure Humidity
    00:00 +26°C° 7.8 mm 5 mps 758 mmHg 98%
    01:00 +26°C° 7.8 mm 5 mps 757 mmHg 98%
    02:00 +26°C° 8.2 mm 5 mps 757 mmHg 98%
    03:00 +26°C° 8.2 mm 5 mps 756 mmHg 98%
    04:00 +26°C° 8.2 mm 6 mps 756 mmHg 98%
    05:00 +26°C° 3 mm 5 mps 756 mmHg 98%
    06:00 +26°C° 3 mm 5 mps 757 mmHg 98%
    07:00 +27°C° 3 mm 4 mps 757 mmHg 97%
    08:00 +27°C° 2 mm 4 mps 757 mmHg 97%
    09:00 +27°C° 2 mm 4 mps 757 mmHg 97%
    10:00 +27°C° 2 mm 4 mps 757 mmHg 96%
    11:00 +27°C° 2.2 mm 4 mps 757 mmHg 96%
    12:00 +27°C° 2.2 mm 4 mps 756 mmHg 96%
    13:00 +27°C° 2.2 mm 4 mps 755 mmHg 96%
    14:00 +27°C° 2.3 mm 4 mps 755 mmHg 96%
    15:00 +27°C° 2.3 mm 4 mps 755 mmHg 96%
    16:00 +26°C° 2.3 mm 4 mps 755 mmHg 97%
    17:00 +26°C° 3 mm 4 mps 755 mmHg 97%
    18:00 +26°C° 3 mm 4 mps 756 mmHg 97%
    19:00 +26°C° 3 mm 4 mps 756 mmHg 97%
    20:00 +26°C° 2.5 mm 5 mps 756 mmHg 97%
    21:00 +26°C° 2.5 mm 6 mps 757 mmHg 96%
    22:00 +24°C° 2.5 mm 6 mps 757 mmHg 96%
    23:00 +24°C° 5.9 mm 7 mps 756 mmHg 97%
    Show more